     2              OBSERVATION DATA    GPS                 RINEX VERSION / TYPE
teqc 1997Jul24 19970902 21:11:05UTC                         PGM / RUN BY / DATE
                                                            COMMENT
BIT 2 OF LLI FLAGS DATA COLLECTED UNDER A-S CONDITION       COMMENT
BIT 2 OF LLI FLAGS DATA COLLECTED UNDER A-S CONDITION       COMMENT
Original Marker Name: 55487.PINY                            COMMENT
Campaign Name: Salt. Tr. Crust. Monit. May-Jun 1986         COMMENT
4-Character Station Name: PINY                              COMMENT
6-Character Antenna Code: TI4100                            COMMENT
Vertical Measurement Point: PAE                             COMMENT
Vertical Offset to Rinex Ref. Point: 0.0000                 COMMENT
Radial Measurement Point: RRP                               COMMENT
Radial Offset to Rinex Ref. Point: 0.0000                   COMMENT
Antenna Height from Field Measurement: 1.5330 m             COMMENT
Original XYZ: -2044963.0218 -3843143.5739 2854309.7938      COMMENT
New XYZ position is based on association with SCEC monument COMMENT
E1D0K5S1+0011. Position of that monument is believed to be  COMMENT
valid to within 1 m horizontally; vertical accuracy         COMMENT
should be no worse than 3-times this value.                 COMMENT
                                                            COMMENT
Revised Rinex header created by UCSD GPS archive for        COMMENT
GSAC on 12-Apr-1999 (1999:102) 10:16:56 GMT                 COMMENT
For assistance contact dagnew@ucsd.edu or hjohnson@ucsd.edu COMMENT
                                                            COMMENT
PINYON FLAT NCMN 1981                                       MARKER NAME
05 NATIONAL GEODETIC SURVEY                                 OBSERVER / AGENCY
UT-09 TI 4100 1.0                                           REC # / TYPE / VERS
156 TI 4100                                                 ANT # / TYPE
 -2369636.0000 -4761325.0000  3511116.0000                  APPROX POSITION XYZ
        1.5330        0.0000        0.0000                  ANTENNA: DELTA H/E/N
     1     1     0                                          WAVELENGTH FACT L1/2
     4    P1    P2    L1    L2                              # / TYPES OF OBSERV
     6                                                      INTERVAL
  1986     6    17     4    21   53.000000                  TIME OF FIRST OBS
  1986     6    17     4    35   59.000000                  TIME OF LAST OBS
     0                                                      # OF SATELLITES
                                                            END OF HEADER
 86  6 17  4 21 53.0800000  0  3G12G13G 7
  21889648.720    21889655.409    44884884.891 9 -53192197.286 8
  22332845.871    22332851.226    76578388.523 8 -85658834.752 9
  24605220.870    24605226.936    16885495.463 8 -41852251.696 7
 86  6 17  4 21 59.0800000  0  3G12G13G 7
  21892592.241    21892598.362    44900356.373 9 -53180141.583 9
  22334737.533    22334743.473    76588330.387 9 -85651087.852 9
  24604833.665    24604839.175    16883455.570 9 -41853841.227 8
 86  6 17  4 22  5.0800000  0  3G12G13G 7
  21895540.146    21895547.076    44915845.926 8 -53168071.802 9
  22336629.538    22336635.205    76598273.632 8 -85643339.851 8
  24604452.855    24604458.421    16881451.278 9 -41855403.400 9
 86  6 17  4 22 11.0800000  0  3G12G13G 7
  21898490.162    21898498.853    44931353.560 8 -53155987.940 9
  22338522.342    22338527.339    76608218.304 8 -85635590.767 8
  24604076.968    24604081.819    16879477.035 9 -41856941.783 8
 86  6 17  4 22 17.0800000  0  3G12G13G 7
  21901444.703    21901452.165    44946879.299 8 -53143889.962 8
  22340415.763    22340420.614    76618164.448 9 -85627840.530 8
  24603705.974    24603711.604    16877529.107 9 -41858459.644 9
 86  6 17  4 22 23.0800000  0  3G12G13G 7
  21904402.056    21904409.570    44962423.109 9 -53131777.914 8
  22342308.754    22342312.176    76628112.076 9 -85620089.121 9
  24603340.188    24603345.023    16875604.847 9 -41859959.064 8
 86  6 17  4 22 29.0800000  0  3G12G13G 7
  21907364.849    21907371.566    44977985.036 9 -53119651.754 8
  22344202.119    22344206.227    76638061.280 9 -85612336.492 8
  24602978.631    24602982.041    16873702.225 9 -41861441.631 8
 86  6 17  4 22 35.0800000  0  3G12G13G 7
  21910329.907    21910335.750    44993565.066 9 -53107511.462 8
  22346095.870    22346100.964    76648012.004 8 -85604582.681 7
  24602619.928    24602625.321    16871820.138 9 -41862908.178 8
 86  6 17  4 22 41.0800000  0  3G12G13G 7
  21913296.993    21913305.451    45009163.216 8 -53095357.059 8
  22347988.659    22347993.126    76657964.257 9 -85596827.677 8
  24602267.121    24602270.426    16869960.658 9 -41864357.129 9
 86  6 17  4 22 47.0800000  0  3G12G13G 7
  21916269.834    21916276.306    45024779.364 9 -53083188.637 8
  22349881.621    22349888.636    76667918.081 8 -85589071.449 8
                  24601923.723                   -41865783.648 7
 86  6 17  4 22 53.0800000  0  3G12G13G 7
  21919244.283    21919251.340    45040413.514 9 -53071006.187 9
  22351777.249    22351781.741    76677873.564 9 -85581313.927 9
  24601576.991    24601581.571    16831693.349 8 -41867182.445 8
 86  6 17  4 22 59.0800000  0  3G12G13G 7
  21922222.321    21922230.587    45056065.671 9 -53058809.709 8
  22353671.326    22353677.740    76687830.561 8 -85573555.212 7
  24601242.020    24601246.526    16829936.205 9 -41868551.633 8
 86  6 17  4 23  5.0800000  0  3G12G13G 7
  21925205.041    21925212.702    45071735.851 8 -53046599.172 8
  22355566.894    22355572.591    76697789.158 9 -85565795.268 8
  24600914.582    24600920.476    16828213.826 9 -41869893.355 9
 86  6 17  4 23 11.0800000  0  3G12G13G 7
  21928189.868    21928197.218    45087424.005 9 -53034374.647 8
  22357461.931    22357467.298    76707749.339 8 -85558034.079 8
  24600592.204    24600598.606    16826522.519 9 -41871211.251 8
 86  6 17  4 23 17.0800000  0  3G12G13G 7
  21931179.169    21931185.365    45103130.031 8 -53022136.178 8
  22359358.414    22359362.294    76717711.031 8 -85550271.715 7
  24600274.968    24600282.353    16824857.362 9 -41872508.775 8
 86  6 17  4 23 23.0800000  0  3G12G13G 7
  21934172.068    21934177.472    45118853.904 9 -53009883.817 8
  22361253.468    22361258.949    76727674.255 8 -85542508.165 8
  24599963.293    24599969.669    16823215.643 9 -41873788.040 8
 86  6 17  4 23 29.0800000  0  3G12G13G 7
  21937166.817    21937173.695    45134595.612 9 -52997617.558 9
  22363150.221    22363156.063    76737639.003 8 -85534743.425 8
  24599654.307    24599662.051    16821595.211 9 -41875050.708 8
 86  6 17  4 23 35.0800000  0  3G12G13G 7
  21940165.737    21940171.607    45150355.086 8 -52985337.443 8
  22365045.646    22365051.601    76747605.200 8 -85526977.560 8
  24599349.739    24599356.857    16819995.371 9 -41876297.347 8
 86  6 17  4 23 41.0800000  0  3G12G13G 7
  21943168.665    21943175.259    45166132.254 8 -52973043.551 9
  22366944.449    22366949.000    76757572.746 8 -85519210.631 8
  24599050.726    24599056.529    16818418.029 9 -41877526.432 7
 86  6 17  4 23 47.0800000  0  3G12G13G 7
  21946173.589    21946181.071    45181927.090 9 -52960735.895 8
  22368839.272    22368845.626    76767541.724 7 -85511442.603 8
                  24598760.414                   -41878732.848 8
 86  6 17  4 23 53.0800000  0  3G12G13G 7
  21949181.649    21949189.601    45197739.602 9 -52948414.464 9
  22370735.783    22370741.622    76777512.197 8 -85503673.406 8
  24598468.206    24598473.839    16780439.789 9 -41879910.929 9
 86  6 17  4 23 59.0800000  0  3G12G13G 7
  21952194.861    21952202.416    45213569.791 9 -52936079.251 8
  22372632.856    22372639.553    76787484.205 8 -85495903.010 7
  24598186.724    24598192.799    16778964.739 9 -41881060.409 9
 86  6 17  4 24  5.0800000  0  3G12G13G 7
  21955211.382    21955217.681    45229417.699 9 -52923730.247 8
  22374531.537    22374536.305    76797457.664 7 -85488131.489 8
  24597913.805    24597918.484    16777525.079 9 -41882182.224 9
 86  6 17  4 24 11.0800000  0  3G12G13G 7
  21958230.371    21958237.296    45245283.212 9 -52911367.511 8
  22376428.913    22376434.698    76807432.490 8 -85480358.897 7
  24597645.093    24597650.024    16776115.519 9 -41883280.582 8
 86  6 17  4 24 17.0800000  0  3G12G13G 7
  21961253.381    21961259.200    45261166.234 9 -52898991.132 8
  22378328.008    22378334.221    76817408.693 8 -85472585.227 7
  24597382.828    24597386.175    16774731.996 9 -41884358.649 8
 86  6 17  4 24 23.0800000  0  3G12G13G 7
  21964279.025    21964285.359    45277066.759 9 -52886601.127 8
  22380228.253    22380232.083    76827386.331 9 -85464810.439 8
  24597123.416    24597127.846    16773371.835 9 -41885418.512 8
 86  6 17  4 24 29.0800000  0  3G12G13G 7
  21967308.994    21967313.016    45292984.732 8 -52874197.502 8
  22382127.424    22382131.781    76837365.313 7 -85457034.598 8
  24596867.941    24596874.158    16772032.738 9 -41886461.963 8
 86  6 17  4 24 35.0800000  0  3G12G13G 7
  21970340.835    21970346.440    45308920.123 8 -52861780.301 8
  22384026.214    22384030.977    76847345.653 8 -85449257.702 9
  24596616.786    24596623.705    16770714.023 9 -41887489.531 9
 86  6 17  4 24 41.0800000  0  3G12G13G 7
  21973377.179    21973382.028    45324872.917 8 -52849349.563 8
  22385924.128    22385930.395    76857327.392 8 -85441479.719 8
  24596371.083    24596376.857    16769418.329 9 -41888499.170 9
 86  6 17  4 24 47.0800000  0  3G12G13G 7
  21976414.541    21976421.147    45340843.110 9 -52836905.263 8
  22387824.553    22387831.527    76867310.474 9 -85433700.682 8
                  24596135.754                   -41889485.757 8
 86  6 17  4 24 53.0800000  0  3G12G13G 7
  21979457.177    21979463.882    45356830.667 9 -52824447.425 8
  22389724.863    22389730.750    76877294.912 8 -85425920.596 9
  24595894.509    24595900.664    16731714.546 9 -41890444.321 9
 86  6 17  4 24 59.0800000  0  3G12G13G 7
  21982501.755    21982508.573    45372835.517 8 -52811976.117 9
  22391624.302    22391631.183    76887280.610 9 -85418139.534 8
  24595668.583    24595674.425    16730522.118 9 -41891373.461 8
 86  6 17  4 25  5.0800000  0  3G12G13G 7
  21985551.132    21985558.561    45388857.647 8 -52799491.350 8
  22393525.179    22393531.962    76897267.636 8 -85410357.436 9
  24595447.518    24595453.951    16729364.653 9 -41892275.779 9
 86  6 17  4 25 11.0800000  0  3G12G13G 7
  21988603.998    21988610.692    45404897.067 9 -52786993.113 8
  22395426.340    22395433.118    76907256.001 9 -85402574.300 9
  24595233.720    24595238.662    16728236.615 9 -41893154.764 8
 86  6 17  4 25 17.0800000  0  3G12G13G 7
  21991659.244    21991666.010    45420953.783 9 -52774481.393 9
  22397327.012    22397334.409    76917245.841 8 -85394790.007 9
  24595024.268    24595028.745    16727134.558 9 -41894013.506 8
 86  6 17  4 25 23.0800000  0  3G12G13G 7
  21994718.455    21994725.106    45437027.863 9 -52761956.141 8
  22399228.375    22399235.733    76927237.262 8 -85387004.477 8
  24594818.446    24594823.232    16726055.893 9 -41894854.020 8
 86  6 17  4 25 29.0800000  0  3G12G13G 7
  21997780.613    21997787.298    45453119.348 8 -52749417.336 7
  22401130.015    22401136.812    76937230.208 8 -85379217.776 9
  24594618.060    24594622.874    16724998.497 9 -41895677.964 8
 86  6 17  4 25 35.0800000  0  3G12G13G 7
  22000844.695    22000853.644    45469228.187 9 -52736864.989 8
  22403033.517    22403038.854    76947224.538 8 -85371429.973 9
  24594420.385    24594426.331    16723961.758 9 -41896485.812 8
 86  6 17  4 25 41.0800000  0  3G12G13G 7
  22003914.651    22003922.269    45485354.316 8 -52724299.188 9
  22404935.909    22404940.427    76957220.346 8 -85363641.015 8
  24594226.633    24594233.458    16722948.380 8 -41897275.455 9
 86  6 17  4 25 47.0800000  0  3G12G13G 7
  22006986.157    22006993.351    45501497.839 8 -52711719.835 8
  22406837.949    22406843.672    76967217.669 9 -85355850.903 8
                  24594045.736                   -41898041.644 8
 86  6 17  4 25 53.0800000  0  3G12G13G 7
  22010061.600    22010069.013    45517658.579 8 -52699127.044 8
  22408741.090    22408746.354    76977216.470 8 -85348059.621 8
  24593859.495    24593866.845    16685523.228 8 -41898779.459 9
 86  6 17  4 25 59.0800000  0  3G12G13G 7
  22013139.697    22013146.553    45533836.527 8 -52686520.868 8
  22410644.116    22410648.364    76987216.859 8 -85340267.100 8
  24593686.183    24593693.831    16684614.043 9 -41899487.914 8
 86  6 17  4 26  5.0800000  0  3G12G13G 7
  22016221.351    22016229.098    45550031.679 8 -52673901.266 8
  22412546.914    22412551.769    76997218.733 9 -85332473.411 8
  24593519.738    24593526.758    16683739.152 9 -41900169.640 8
 86  6 17  4 26 11.0800000  0  3G12G13G 7
  22019307.773    22019313.360    45566243.941 8 -52661268.344 7
  22414450.289    22414456.117    77007222.068 8 -85324678.608 8
  24593360.177    24593364.755    16682894.080 9 -41900828.145 9
 86  6 17  4 26 17.0800000  0  3G12G13G 7
  22022395.015    22022401.779    45582473.205 8 -52648622.161 8
  22416354.010    22416358.692    77017226.729 9 -85316882.764 7
  24593205.130    24593209.029    16682074.728 9 -41901466.596 7
 86  6 17  4 26 23.0800000  0  3G12G13G 7
  22025486.577    22025493.834    45598719.443 8 -52635962.774 8
  22418257.202    22418263.341    77027232.648 8 -85309085.949 8
  24593053.152    24593057.558    16681278.316 9 -41902087.171 8
 86  6 17  4 26 29.0800000  0  3G12G13G 7
  22028581.301    22028588.138    45614982.616 8 -52623290.171 8
  22420161.719    22420167.001    77037239.886 8 -85301288.088 8
  24592905.023    24592909.553    16680503.086 9 -41902691.256 7
 86  6 17  4 26 35.0800000  0  3G12G13G 7
  22031679.642    22031687.768    45631262.836 8 -52610604.292 7
  22422065.292    22422072.316    77047248.569 8 -85293489.100 8
  24592761.904    24592765.960    16679748.501 9 -41903279.235 8
 86  6 17  4 26 41.0800000  0  3G12G13G 7
  22034780.155    22034788.419    45647560.128 9 -52597905.108 8
  22423969.882    22423977.405    77057258.700 8 -85285688.978 8
  24592622.246    24592628.214    16679017.471 9 -41903848.863 8
 86  6 17  4 26 47.0800000  0  3G12G13G 7
  22037886.591    22037893.422    45663874.485 7 -52585192.623 8
  22425876.176    22425882.301    77067270.337 8 -85277887.710 8
                  24592494.558                   -41904394.767 8
 86  6 17  4 26 53.0800000  0  3G12G13G 7
  22040993.737    22040999.970    45680205.815 9 -52572466.914 8
  22427781.013    22427786.986    77077283.381 8 -85270085.327 7
  24592361.870    24592368.193    16641882.503 9 -41904912.082 8
 86  6 17  4 26 59.0800000  0  3G12G13G 7
  22044103.891    22044110.642    45696553.980 8 -52559728.084 8
  22429687.530    22429693.371    77087297.865 7 -85262281.841 8
  24592242.705    24592248.821    16641256.157 9 -41905400.124 8
 86  6 17  4 27  5.0800000  0  3G12G13G 7
  22047218.986    22047225.518    45712918.861 8 -52546976.231 8
  22431593.252    22431599.422    77097313.676 8 -85254477.318 8
  24592129.912    24592136.637    16640663.426 9 -41905861.621 8
 86  6 17  4 27 11.0800000  0  3G12G13G 7
  22050335.768    22050342.476    45729300.493 8 -52534211.338 8
  22433499.606    22433505.696    77107330.831 8 -85246671.729 8
  24592022.564    24592029.770    16640100.631 8 -41906300.159 7
 86  6 17  4 27 17.0800000  0  3G12G13G 7
  22053455.956    22053462.627    45745698.853 8 -52521433.393 8
  22435404.789    22435411.583    77117349.273 8 -85238865.166 7
  24591921.020    24591926.715    16639563.410 9 -41906718.760 8
 86  6 17  4 27 23.0800000  0  3G12G13G 7
  22056580.283    22056587.608    45762113.890 8 -52508642.475 7
  22437311.062    22437319.691    77127368.935 7 -85231057.634 8
  24591822.930    24591829.771    16639049.096 9 -41907119.523 8
 86  6 17  4 27 29.0800000  0  3G12G13G 7
  22059707.275    22059714.746    45778545.592 8 -52495838.556 8
  22439217.596    22439225.502    77137389.905 7 -85223249.092 9
  24591728.525    24591734.880    16638555.627 9 -41907504.050 8
 86  6 17  4 27 35.0800000  0  3G12G13G 7
  22062838.172    22062844.032    45794993.871 8 -52483021.714 8
  22441125.261    22441132.521    77147412.167 7 -85215439.537 7
  24591638.735    24591644.117    16638082.569 8 -41907872.667 8
 86  6 17  4 27 41.0800000  0  3G12G13G 7
  22065970.390    22065976.979    45811458.866 9 -52470191.864 9
  22443033.020    22443038.902    77157435.696 8 -85207628.994 8
  24591553.690    24591559.241    16637633.384 9 -41908222.675 9
 86  6 17  4 27 47.0800000  0  3G12G13G 7
  22069107.683    22069112.224    45827940.426 9 -52457349.097 7
  22444941.619    22444947.015    77167460.575 9 -85199817.392 9
                  24591479.304                   -41908548.737 8
 86  6 17  4 27 53.0800000  0  3G12G13G 7
  22072245.632    22072252.555    45844438.684 8 -52444493.321 8
  22446849.929    22446855.003    77177486.760 9 -85192004.775 9
  24591403.316    24591406.762    16600770.187 9 -41908846.194 9
 86  6 17  4 27 59.0800000  0  3G12G13G 7
  22075387.915    22075394.768    45860953.584 8 -52431624.564 7
  22448758.375    22448762.901    77187514.293 8 -85184191.117 8
  24591337.271    24591341.471    16600425.812 9 -41909114.539 8
 86  6 17  4 28  5.0800000  0  3G12G13G 7
  22078533.159    22078540.370    45877485.112 8 -52418742.848 7
  22450666.287    22450672.148    77197543.186 8 -85176376.386 8
  24591276.486    24591282.576    16600115.535 9 -41909356.311 8
 86  6 17  4 28 11.0800000  0  3G12G13G 7
  22081683.075    22081689.108    45894033.343 8 -52405848.115 9
  22452575.003    22452582.179    77207573.626 8 -85168560.467 8
  24591222.991    24591230.054    16599834.611 9 -41909575.217 8
 86  6 17  4 28 17.0800000  0  3G12G13G 7
  22084834.322    22084842.090    45910598.107 8 -52392940.525 7
  22454484.223    22454489.905    77217605.438 8 -85160743.459 8
  24591174.757    24591182.497    16599579.070 9 -41909774.331 8
 86  6 17  4 28 23.0800000  0  3G12G13G 7
  22087990.060    22087998.059    45927179.466 8 -52380019.996 8
  22456392.672    22456399.728    77227638.675 8 -85152925.358 8
  24591130.398    24591136.701    16599346.399 9 -41909955.629 9
 86  6 17  4 28 29.0800000  0  3G12G13G 7
  22091148.911    22091155.922    45943777.376 7 -52367086.556 8
  22458303.024    22458309.032    77237673.437 9 -85145106.061 8
  24591090.684    24591095.979    16599134.793 9 -41910120.513 9
 86  6 17  4 28 35.0800000  0  3G12G13G 7
  22094309.618    22094317.809    45960391.894 8 -52354140.185 8
  22460213.991    22460218.203    77247709.763 8 -85137285.537 9
  24591054.439    24591059.969    16598944.036 9 -41910269.160 8
 86  6 17  4 28 41.0800000  0  3G12G13G 7
  22097475.291    22097483.050    45977023.062 8 -52341180.832 8
  22462123.961    22462128.690    77257747.596 9 -85129463.850 8
  24591021.827    24591027.830    16598777.487 9 -41910398.922 9
 86  6 17  4 28 47.0800000  0  3G12G13G 7
  22100643.181    22100650.011    45993670.846 8 -52328208.543 8
  22464033.388    22464039.165    77267786.887 9 -85121641.015 8
                  24591002.196                   -41910504.277 8
 86  6 17  4 28 53.0800000  0  3G12G13G 7
  22103814.149    22103821.297    46010335.035 8 -52315223.469 9
  22465943.933    22465949.680    77277827.531 9 -85113817.144 8
  24590978.028    24590983.094    16562198.048 9 -41910580.825 8
 86  6 17  4 28 59.0800000  0  3G12G13G 7
  22106988.593    22106994.663    46027015.683 9 -52302225.567 8
  22467855.769    22467860.521    77287869.546 9 -85105992.182 8
  24590965.679    24590972.026    16562137.181 9 -41910628.245 9
 86  6 17  4 29  5.0800000  0  3G12G13G 7
  22110166.189    22110172.657    46043712.591 8 -52289214.984 9
  22469765.954    22469770.774    77297912.909 8 -85098166.201 8
  24590960.514    24590966.875    16562109.877 9 -41910649.516 8
 86  6 17  4 29 11.0800000  0  3G12G13G 7
  22113346.655    22113353.237    46060425.749 7 -52276191.753 8
  22471677.283    22471682.976    77307957.598 9 -85090339.161 8
  24590960.743    24590967.712    16562111.510 8 -41910648.247 9
 86  6 17  4 29 17.0800000  0  3G12G13G 7
  22116528.901    22116536.667    46077155.089 8 -52263155.894 8
  22473589.599    22473593.694    77318003.616 9 -85082511.087 8
  24590966.346    24590971.963    16562138.323 9 -41910627.345 8
 86  6 17  4 29 23.0800000  0  3G12G13G 7
  22119716.923    22119723.915    46093900.666 8 -52250107.402 8
  22475501.651    22475507.144    77328051.003 8 -85074681.969 8
  24590975.863    24590981.693    16562187.933 9 -41910588.678 9
 86  6 17  4 29 29.0800000  0  3G12G13G 7
  22122905.257    22122913.740    46110662.381 8 -52237046.328 8
  22477413.513    22477419.592    77338099.587 9 -85066851.880 8
  24590989.005    24590995.223    16562258.318 9 -41910533.837 8
 86  6 17  4 29 35.0800000  0  3G12G13G 7
  22126098.166    22126106.476    46127440.250 8 -52223972.671 8
  22479326.264    22479332.870    77348149.497 8 -85059020.786 8
  24591006.405    24591012.352    16562349.336 8 -41910462.911 8
 86  6 17  4 29 41.0800000  0  3G12G13G 7
  22129294.805    22129302.428    46144234.235 8 -52210886.449 8
  22481238.367    22481245.895    77358200.744 8 -85051188.651 8
                  24591033.177                   -41910372.878 8
 86  6 17  4 29 47.0800000  0  3G12G13G 7
  22132493.008    22132500.882    46161044.414 9 -52197787.618 7
  22483150.976    22483158.061    77368253.358 8 -85043355.454 8
  24591076.757    24591062.047    16525985.735 8 -41910258.427 8
 86  6 17  4 29 53.0800000  0  3G12G13G 7
  22135694.825    22135701.852    46177870.843 8 -52184676.116 7
  22485064.195    22485071.755    77378307.309 7 -85035521.212 8
  24591090.874    24591096.768    16526169.485 9 -41910114.861 8
 86  6 17  4 29 59.0800000  0  3G12G13G 7
  22138900.326    22138907.136    46194713.364 8 -52171552.078 8
  22486976.856    22486983.831    77388362.566 7 -85027685.947 8
  24591133.623    24591138.432    16526390.891 9 -41909942.341 8
 86  6 17  4 30  5.0800000  0  3G12G13G 7
  22142108.284    22142115.786    46211572.001 8 -52158415.496 7
  22488891.717    22488897.647    77398419.232 7 -85019849.592 8
  24591181.266    24591188.478    16526646.270 9 -41909743.733 9
 86  6 17  4 30 11.0800000  0  3G12G13G 7
  22145319.627    22145326.749    46228446.805 8 -52145266.292 8
  22490807.013    22490812.412    77408477.315 9 -85012012.129 8
  24591235.856    24591242.404    16526930.005 9 -41909522.629 9
 86  6 17  4 30 17.0800000  0  3G12G13G 7
  22148534.476    22148540.193    46245337.655 9 -52132104.588 8
  22492720.451    22492726.580    77418536.698 8 -85004173.646 8
  24591294.079    24591301.142    16527238.841 9 -41909281.985 8
 86  6 17  4 30 23.0800000  0  3G12G13G 7
  22151752.314    22151758.781    46262244.505 8 -52118930.429 8
  22494634.009    22494641.209    77428597.469 9 -84996334.096 7
  24591357.557    24591363.652    16527570.278 9 -41909023.709 8
 86  6 17  4 30 29.0800000  0  3G12G13G 7
  22154971.887    22154978.829    46279167.378 9 -52105743.776 7
  22496549.167    22496556.202    77438659.675 7 -84988493.421 9
  24591425.140    24591431.735    16527922.505 9 -41908749.241 8
 86  6 17  4 30 35.0800000  0  3G12G13G 7
  22158195.131    22158202.866    46296106.225 8 -52092544.666 8
  22498465.035    22498470.365    77448723.312 8 -84980651.631 8
  24591496.377    24591501.515    16528295.615 9 -41908458.511 8
 86  6 17  4 30 41.0800000  0  3G12G13G 7
  22161420.615    22161428.558    46313061.098 7 -52079333.091 8
  22500378.879    22500386.855    77458788.362 9 -84972808.747 8
                  24591576.203                   -41908148.400 8
 86  6 17  4 30 47.0800000  0  3G12G13G 7
  22164650.596    22164658.530    46330031.878 9 -52066109.104 9
  22502295.548    22502301.198    77468854.750 9 -84964964.806 8
  24591672.711    24591658.202    16492210.694 9 -41907813.640 8
 86  6 17  4 30 53.0800000  0  3G12G13G 7
  22167884.048    22167890.055    46347018.552 8 -52052872.746 8
  22504211.063    22504216.453    77478922.484 8 -84957119.822 8
  24591742.111    24591748.228    16492677.658 9 -41907449.789 8
 86  6 17  4 30 59.0800000  0  3G12G13G 7
  22171119.790    22171125.738    46364021.054 8 -52039624.039 8
  22506127.386    22506132.986    77488991.515 9 -84949273.805 8
  24591838.183    24591844.408    16493181.637 9 -41907057.069 9
 86  6 17  4 31  5.0800000  0  3G12G13G 7
  22174357.441    22174365.307    46381039.353 9 -52026363.021 8
  22508042.796    22508050.032    77499061.910 8 -84941426.744 8
  24591941.438    24591945.701    16493718.223 9 -41906638.556 9
 86  6 17  4 31 11.0800000  0  3G12G13G 7
  22177599.204    22177606.864    46398073.447 8 -52013089.707 8
  22509960.153    22509965.470    77509133.572 8 -84933578.691 8
  24592048.509    24592053.443    16494283.787 9 -41906197.853 8
 86  6 17  4 31 17.0800000  0  3G12G13G 7
  22180844.064    22180851.432    46415123.283 9 -51999804.129 8
  22511876.136    22511882.856    77519206.605 9 -84925729.575 9
  24592159.841    24592165.548    16494874.276 9 -41905737.726 8
 86  6 17  4 31 23.0800000  0  3G12G13G 7
  22184090.919    22184097.465    46432188.829 9 -51986506.299 8
  22513794.389    22513799.304    77529280.924 8 -84917879.462 8
  24592276.869    24592282.590    16495487.239 9 -41905260.094 8
 86  6 17  4 31 29.0800000  0  3G12G13G 7
  22187341.897    22187348.568    46449270.054 8 -51973196.252 8
  22515711.345    22515717.340    77539356.619 9 -84910028.256 7
  24592397.796    24592402.811    16496120.805 9 -41904766.410 8
 86  6 17  4 31 35.0800000  0  3G12G13G 7
  22190596.014    22190601.515    46466366.982 9 -51959873.977 8
  22517629.211    22517633.596    77549433.719 9 -84902175.979 8
  24592522.035    24592528.810    16496775.414 8 -41904256.333 8
 86  6 17  4 31 41.0800000  0  3G12G13G 7
  22193852.165    22193858.227    46483479.742 8 -51946539.367 8
  22519547.501    22519552.482    77559512.302 9 -84894322.528 8
                  24592657.950                   -41903726.634 8
 86  6 17  4 31 47.0800000  0  3G12G13G 7
  22197110.404    22197118.480    46500608.222 9 -51933192.489 7
  22521465.635    22521470.763    77569592.389 8 -84886467.909 8
  24592829.282    24592792.608    16460967.172 9 -41903171.903 8
 86  6 17  4 31 53.0800000  0  3G12G13G 7
  22200372.499    22200380.069    46517752.341 8 -51919833.451 8
  22523384.235    22523388.824    77579673.819 9 -84878612.250 8
  24592930.880    24592934.987    16461716.547 8 -41902587.894 9
 86  6 17  4 31 59.0800000  0  3G12G13G 7
  22203638.332    22203644.254    46534912.151 9 -51906462.167 8
  22525301.860    22525306.985    77589756.693 9 -84870755.452 7
  24593079.258    24593085.269    16462502.964 9 -41901975.104 8
 86  6 17  4 32  5.0800000  0  3G12G13G 7
  22206908.013    22206913.708    46552087.596 8 -51893078.709 8
  22527221.016    22527226.067    77599840.957 8 -84862897.586 8
  24593235.509    24593240.767    16463322.270 8 -41901336.682 8
 86  6 17  4 32 11.0800000  0  3G12G13G 7
  22210179.229    22210184.321    46569278.565 8 -51879683.139 7
  22529140.792    22529146.299    77609926.584 8 -84855038.657 8
  24593397.603    24593402.855    16464169.974 9 -41900676.133 9
 86  6 17  4 32 17.0800000  0  3G12G13G 7
  22213452.758    22213459.302    46586485.043 8 -51866275.503 7
  22531060.030    22531066.352    77620013.498 8 -84847178.717 9
  24593563.762    24593567.483    16465042.540 9 -41899996.215 8
 86  6 17  4 32 23.0800000  0  3G12G13G 7
  22216728.826    22216736.793    46603706.974 7 -51852855.825 7
  22532979.826    22532984.960    77630101.766 8 -84839317.714 8
  24593733.519    24593738.313    16465937.425 9 -41899298.889 9
 86  6 17  4 32 29.0800000  0  3G12G13G 7
  22220009.318    22220016.889    46620944.327 8 -51839424.126 7
  22534899.758    22534905.173    77640191.381 9 -84831455.661 8
  24593906.445    24593911.954    16466852.830 9 -41898585.585 9
 86  6 17  4 32 35.0800000  0  3G12G13G 7
  22223292.824    22223300.896    46638197.003 8 -51825980.485 8
  22536820.112    22536824.360    77650282.326 8 -84823592.584 8
  24594084.674    24594090.479    16467789.199 9 -41897855.962 8
 86  6 17  4 32 41.0800000  0  3G12G13G 7
  22226578.640    22226586.624    46655465.125 9 -51812524.817 8
  22538740.725    22538746.279    77660374.568 9 -84815728.504 8
                  24594274.235                   -41897106.621 8
 86  6 17  4 32 47.0800000  0  3G12G13G 7
  22229868.475    22229873.779    46672748.535 9 -51799057.215 8
  22540660.363    22540667.431    77670468.029 9 -84807863.469 9
  24594448.201    24594462.896    16432262.369 8 -41896332.094 8
 86  6 17  4 32 53.0800000  0  3G12G13G 7
  22233160.175    22233165.996    46690047.145 9 -51785577.784 9
  22542582.122    22542588.314    77680562.689 9 -84799997.497 9
  24594654.354    24594658.231    16433293.659 9 -41895528.450 8
 86  6 17  4 32 59.0800000  0  3G12G13G 7
  22236455.203    22236461.226    46707360.960 9 -51772086.494 8
  22544503.789    22544509.682    77690658.529 9 -84792130.619 8
  24594856.593    24594861.838    16434361.479 8 -41894696.394 8
 86  6 17  4 33  5.0800000  0  3G12G13G 7
  22239752.750    22239759.421    46724689.934 8 -51758583.410 8
  22546424.980    22546430.103    77700755.559 9 -84784262.794 8
  24595065.965    24595070.981    16435462.514 9 -41893838.829 8
 86  6 17  4 33 11.0800000  0  3G12G13G 7
  22243052.104    22243059.400    46742034.072 9 -51745068.505 8
  22548347.258    22548352.048    77710853.805 8 -84776394.029 8
  24595280.581    24595286.063    16436590.944 9 -41892959.530 8
 86  6 17  4 33 17.0800000  0  3G12G13G 7
  22246355.502    22246362.868    46759393.495 8 -51731541.694 8
  22550267.284    22550273.540    77720953.383 9 -84768524.221 7
  24595500.150    24595506.855    16437743.917 9 -41892061.114 9
 86  6 17  4 33 23.0800000  0  3G12G13G 7
  22249661.388    22249669.060    46776768.146 7 -51718003.007 8
  22552190.973    22552195.510    77731054.356 9 -84760653.334 8
  24595723.573    24595729.226    16438919.114 9 -41891145.380 9
 86  6 17  4 33 29.0800000  0  3G12G13G 7
  22252970.712    22252978.042    46794158.076 8 -51704452.418 9
  22554113.595    22554118.360    77741156.744 9 -84752781.332 8
  24595951.992    24595957.753    16440114.917 9 -41890213.582 7
 86  6 17  4 33 35.0800000  0  3G12G13G 7
  22256283.349    22256289.819    46811563.302 8 -51690889.906 8
  22556036.712    22556042.311    77751260.555 9 -84744908.238 8
  24596183.421    24596190.069    16441331.975 9 -41889265.225 8
 86  6 17  4 33 41.0800000  0  3G12G13G 7
  22259598.990    22259604.431    46828983.798 9 -51677315.503 8
  22557958.761    22557964.616    77761365.774 9 -84737034.059 8
                  24596425.662                   -41888296.790 8
 86  6 17  4 33 47.0800000  0  3G12G13G 7
  22262917.084    22262923.217    46846419.576 8 -51663729.184 8
  22559882.624    22559887.559    77771472.558 9 -84729158.627 8
  24596638.474    24596667.794    16406083.581 9 -41887302.735 8
 86  6 17  4 33 53.0800000  0  3G12G13G 7
  22266237.684    22266243.741    46863870.546 8 -51650131.015 8
  22561806.532    22561811.001    77781580.776 9 -84721282.094 8
  24596912.754    24596918.236    16407397.136 9 -41886279.126 8
 86  6 17  4 33 59.0800000  0  3G12G13G 7
  22269560.992    22269567.159    46881336.803 9 -51636520.952 7
  22563728.756    22563734.410    77791690.532 8 -84713404.370 9
  24597169.226    24597174.986    16408747.348 9 -41885227.004 8
 86  6 17  4 34  5.0800000  0  3G12G13G 7
  22272886.008    22272893.779    46898818.346 8 -51622898.982 8
  22565652.897    22565659.004    77801801.859 9 -84705525.432 8
  24597432.358    24597437.959    16410130.062 8 -41884149.567 8
 86  6 17  4 34 11.0800000  0  3G12G13G 7
  22276216.712    22276222.930    46916315.005 8 -51609265.219 8
  22567576.305    22567582.073    77811914.748 8 -84697645.262 8
  24597700.749    24597706.023    16411540.707 8 -41883050.370 8
 86  6 17  4 34 17.0800000  0  3G12G13G 7
  22279549.011    22279557.174    46933826.798 9 -51595619.686 8
  22569501.453    22569507.633    77822029.136 8 -84689763.918 8
  24597973.598    24597980.817    16412975.856 9 -41881932.072 8
 86  6 17  4 34 23.0800000  0  3G12G13G 7
  22282884.457    22282890.820    46951353.667 9 -51581962.382 8
  22571426.706    22571432.685    77832145.016 9 -84681881.418 8
  24598250.738    24598257.855    16414433.303 9 -41880796.403 8
 86  6 17  4 34 29.0800000  0  3G12G13G 7
  22286222.422    22286230.916    46968895.542 9 -51568293.383 8
  22573353.225    22573358.523    77842262.245 9 -84673997.867 8
  24598532.543    24598539.354    16415911.257 9 -41879644.748 8
 86  6 17  4 34 35.0800000  0  3G12G13G 7
  22289563.906    22289570.312    46986452.279 9 -51554612.816 8
  22575278.594    22575284.279    77852380.799 8 -84666113.273 8
  24598818.885    24598823.900    16417410.397 9 -41878476.584 8
 86  6 17  4 34 41.0800000  0  3G12G13G 7
  22292907.531    22292915.047    47004023.750 9 -51540920.760 8
  22577203.613    22577209.588    77862500.588 9 -84658227.719 8
                  24599113.698                   -41877288.351 8
 86  6 17  4 34 47.0800000  0  3G12G13G 7
  22296254.279    22296261.183    47021609.904 8 -51527217.275 8
  22579129.003    22579135.958    77872621.550 8 -84650341.258 9
  24599373.682    24599410.314    16382440.771 9 -41876074.504 8
 86  6 17  4 34 53.0800000  0  3G12G13G 7
  22299604.385    22299610.503    47039210.788 9 -51513502.303 8
  22581055.645    22581062.449    77882743.667 9 -84642453.901 8
  24599708.231    24599714.177    16384036.061 9 -41874831.266 9
 86  6 17  4 34 59.0800000  0  3G12G13G 7
  22302956.421    22302961.891    47056826.317 8 -51499775.910 8
  22582981.953    22582988.731    77892866.902 9 -84634565.658 9
  24600019.133    24600024.537    16385667.198 9 -41873559.865 8
 86  6 17  4 35  5.0800000  0  3G12G13G 7
  22306309.998    22306317.702    47074456.454 8 -51486038.153 8
  22584908.712    22584913.356    77902991.318 9 -84626676.503 8
  24600335.711    24600341.185    16387330.638 8 -41872263.677 9
 86  6 17  4 35 11.0800000  0  3G12G13G 7
  22309668.106    22309675.143    47092101.275 8 -51472288.941 8
  22586835.892    22586840.669    77913117.014 9 -84618786.358 9
  24600657.333    24600663.428    16389021.598 9 -41870946.048 8
 86  6 17  4 35 17.0800000  0  3G12G13G 7
  22313029.247    22313035.244    47109760.699 7 -51458528.367 9
  22588763.226    22588767.783    77923243.895 9 -84610895.277 8
  24600984.400    24600989.399    16390736.641 9 -41869609.651 8
 86  6 17  4 35 23.0800000  0  3G12G13G 7
  22316391.894    22316399.784    47127434.609 8 -51444756.513 8
  22590690.541    22590694.771    77933371.974 9 -84603003.269 8
  24601314.347    24601319.484    16392473.486 9 -41868256.276 8
 86  6 17  4 35 29.0800000  0  3G12G13G 7
  22319758.045    22319765.716    47145122.949 8 -51430973.398 8
  22592618.315    22592622.219    77943501.265 8 -84595110.319 8
  24601647.916    24601652.430    16394230.733 9 -41866886.985 8
 86  6 17  4 35 35.0800000  0  3G12G13G 7
  22323125.795    22323134.363    47162825.802 8 -51417178.956 8
  22594545.888    22594550.681    77953631.856 8 -84587216.339 7
  24601986.486    24601991.980    16396009.183 9 -41865501.178 7
 86  6 17  4 35 41.0800000  0  3G12G13G 7
  22326498.824    22326506.261    47180543.233 9 -51403373.160 7
  22596474.575    22596478.743    77963763.752 9 -84579321.357 8
                  24602336.109                   -41864095.048 8
 86  6 17  4 35 47.0800000  0  3G12G13G 7
  22329872.320    22329878.107    47198275.303 9 -51389555.965 8
  22598401.833    22598407.966    77973896.908 9 -84571425.389 9
  24602611.404    24602684.667    16361317.898 9 -41862662.913 8
 86  6 17  4 35 53.0800000  0  3G12G13G 7
  22333249.505    22333256.965    47216021.971 8 -51375727.399 8
  22600330.808    22600336.824    77984031.357 9 -84563528.408 8
  24603036.911    24603042.569    16363193.231 9 -41861201.401 9
